Location: *
(32.5378°S, 174.5749°E)
Time: 05:01:22
(UTC+00:00)

Daily predictions for brighter satellites

Satellite Brightness Start Highest point End
(mag) Time Altitude Azimuth Time Altitude Azimuth Time Altitude Azimuth
STARLINK-1019 3.7 05:44:30 10° NW 05:48:40 87° NE 05:52:54 10° SE
STARLINK-24 4.0 05:45:03 10° NW 05:49:03 63° SW 05:53:06 10° SE
STARLINK-65 3.8 05:45:20 10° NW 05:49:11 66° SW 05:53:03 10° SE
SKYMED 2 3.7 05:46:13 10° N 05:50:35 83° WNW 05:55:01 10° SSW
STARLINK-53 3.9 05:47:15 10° NW 05:51:06 60° SW 05:55:00 10° SE
BREEZE-M DEB (TANK) 4.1 05:49:49 10° N 05:52:12 15° NE 05:53:51 10° ENE
STARLINK-25 3.7 05:48:50 10° NW 05:52:33 62° SW 05:56:18 10° SE
STARLINK-1012 3.7 05:49:28 10° NW 05:53:38 84° SW 05:57:52 10° SE
Cosmos 1818 3.7 05:48:21 10° NNW 05:53:40 63° ENE 05:59:02 10° SE
NOAA 6 4.1 05:50:58 10° SSE 05:56:06 63° ENE 06:01:11 10° N
Cosmos 1666 Rocket 4.0 05:52:18 10° NNE 05:56:25 41° E 06:00:34 10° SSE
MOS 1-B 4.4 05:52:12 10° SSE 05:58:06 87° ENE 06:03:54 10° NNW
SJ-7 4.4 05:54:16 10° SSE 05:58:16 61° E 06:02:15 10° N
Cosmos 1633 Rocket 3.7 05:54:31 10° NNE 05:58:34 35° E 06:02:39 10° SSE
Shenzhou-11 Module 4.2 05:57:55 10° SW 05:59:05 12° SSW 06:00:16 10° SSE
Starlink 7 placeholder 3.8 05:57:59 10° SSW 06:00:33 25° SE 06:03:00 10° E
Meteor 2-20 4.5 05:55:35 10° S 06:01:50 80° E 06:07:59 10° N
Cosmos 2219 Rocket 3.3 05:57:45 10° NW 06:03:12 47° WSW 06:08:42 10° S
STARLINK-1026 3.9 05:59:28 10° NW 06:03:37 67° SW 06:07:47 10° SE
Cosmos 1680 Rocket 3.9 05:59:27 10° NNW 06:04:43 69° WSW 06:10:01 10° S
STARLINK-50 4.4 06:01:18 10° WNW 06:05:14 47° SW 06:09:12 10° SSE
Centaur D AC-29 3.2 05:47:19 10° WNW 06:05:17 52° N 06:09:37 10° ENE
H-2A R/B 4.3 06:01:57 10° S 06:05:36 31° WSW 06:09:06 10° NW
YAOGAN 6 3.9 06:03:45 10° SE 06:06:40 21° E 06:09:31 10° NNE
ALOS 4.4 06:03:12 10° SSW 06:07:09 27° WSW 06:11:04 10° NW
STARLINK-1013 4.1 06:04:26 10° NW 06:08:33 59° SW 06:12:43 10° SE
Cosmos 1844 4.1 06:04:16 10° SSW 06:09:49 68° WNW 06:15:21 10° N
Cosmos 1862 4.0 06:06:52 10° NNW 06:10:48 59° W 06:14:50 10° S
STARLINK-1009 4.3 06:09:28 10° WNW 06:13:32 53° SW 06:17:39 10° SE
Cosmos 1153 Rocket 4.5 06:08:26 10° N 06:14:31 67° E 06:20:40 10° SSE
Meteor 2-6 Rocket 4.3 06:12:00 10° S 06:17:32 80° W 06:23:08 10° N
Cosmos 1980 3.7 06:12:32 10° NNW 06:18:11 81° ENE 06:23:55 10° SSE
STARLINK-1015 4.4 06:14:29 10° WNW 06:18:32 48° SW 06:22:26 11° SSE
SL-4 R/B 2.4 06:17:16 10° SSW 06:20:53 39° SE 06:24:06 14° ENE
Cosmos 1238 Rocket 3.1 06:16:40 10° N 06:21:33 62° E 06:25:37 10° SSE
NOSS 0 Rocket 4.3 06:20:39 10° NNW 06:26:50 70° WSW 06:33:08 10° SSE
Envisat 3.0 06:24:35 10° SSE 06:29:41 60° E 06:34:42 10° N
Cosmos 1447 Rocket 4.5 06:24:11 10° S 06:30:37 75° E 06:36:56 10° N
STARLINK-1024 4.4 06:27:03 10° NNW 06:30:53 36° NE 06:32:43 24° E
Cosmos 1812 2.7 06:28:49 10° S 06:32:44 86° W 06:36:36 10° N
Cosmos 2173 Rocket 4.1 06:27:11 10° NNE 06:33:17 53° E 06:39:21 10° SSE
STARLINK-1035 4.2 06:31:56 10° NNW 06:35:50 40° NE 06:37:31 27° E
Cosmos 1461 3.7 06:33:13 10° S 06:36:32 26° SE 06:36:32 26° SE
Helios 1A Rocket 3.1 06:33:10 13° SSE 06:36:40 50° E 06:40:36 10° N
Lacrosse 5 rocket 1.4 06:33:26 10° NNW 06:37:38 78° NE 06:40:18 23° SE
STARLINK-60 3.2 06:36:24 10° SSW 06:39:35 48° SE 06:40:18 39° E
Meteor 1-27 Rocket 3.8 06:33:37 10° S 06:39:35 79° E 06:45:32 10° N
ATLAS 5 CENTAUR R/B 2.9 06:32:24 10° NNW 06:39:40 78° WSW 06:46:25 11° SSE
Cosmos 1459 Rocket 4.0 06:34:21 10° N 06:40:24 61° E 06:46:38 10° SSE
STARLINK-1032 4.0 06:36:49 10° NNW 06:40:48 46° NE 06:42:18 31° ESE
Delta 142 4.3 06:38:43 10° WNW 06:42:51 45° N 06:45:32 23° ENE
SL-24 R/B - RUBIN 2 3.8 06:39:40 10° NNW 06:45:01 90° WNW 06:48:23 20° SSE
Cosmos 1470 Rocket 3.5 06:41:06 10° N 06:45:34 70° E 06:50:06 10° SSE
STARLINK-1011 3.9 06:41:44 10° NNW 06:45:45 52° NE 06:47:06 36° ESE
Cosmos 2237 Rocket 2.7 06:40:43 10° NNW 06:46:18 61° WSW 06:51:56 10° SSE
STARLINK-1037 3.8 06:43:08 10° NNW 06:47:11 54° NE 06:48:29 37° ESE
Cosmos 1624 Rocket 3.9 06:43:13 10° S 06:48:27 63° ESE 06:53:40 10° NNE
Cosmos 1707 Rocket 4.2 06:45:46 10° SSW 06:50:09 58° W 06:54:26 10° N
STARLINK-1036 3.7 06:46:38 10° NNW 06:50:43 58° NE 06:51:52 41° ESE
CZ-4B R/B 4.1 06:46:40 10° S 06:51:57 49° WSW 06:57:17 10° NW
CORIOLIS 4.1 06:49:50 10° SSE 06:55:22 89° W 07:00:48 10° NNW
STARLINK-1044 3.6 06:51:34 10° NNW 06:55:41 66° NE 06:56:39 48° ESE
Cosmos 1441 Rocket 3.1 06:55:24 10° N 06:59:22 85° E 07:01:16 30° S
NOAA 12 4.1 06:55:17 10° S 07:00:37 84° WSW 07:05:53 10° NNW
STARLINK-1047 3.5 06:56:31 10° NW 07:00:40 75° NE 07:01:28 56° ESE
SL-16 R/B 2.2 06:56:19 10° N 07:01:54 60° ENE 07:04:24 33° SE
Cosmos 1371 Rocket 4.1 06:58:06 10° SSW 07:03:32 79° WNW 07:08:52 10° N
NOSS 2-2 (D) 4.4 06:56:22 10° SSW 07:03:37 57° SE 07:06:07 32° ENE
Cosmos 1862 Rocket 3.5 06:59:39 10° S 07:04:14 86° E 07:08:44 10° N
ARGOS Delta rocket 4.4 07:04:14 41° E 07:04:33 42° E 07:09:24 10° NNE
NOAA 11 4.5 07:04:15 40° ESE 07:05:15 44° E 07:10:29 10° N
Cosmos 1802 Rocket 4.0 07:00:37 10° N 07:07:03 83° E 07:13:33 10° S
Okean O Rocket 3.8 07:05:15 10° SSW 07:08:53 25° WSW 07:12:32 10° NW
Cosmos 1725 Rocket 4.0 07:03:38 10° NNE 07:09:43 57° E 07:13:48 22° SSE
STARLINK-1059 3.5 07:06:25 10° NW 07:10:35 87° SW 07:11:00 72° SE
IRS-1C Rocket 4.1 07:09:07 14° SSE 07:13:41 85° WSW 07:18:57 10° NNW
STARLINK-1057 3.6 07:11:24 10° NW 07:15:34 78° SW 07:15:48 75° S
Cosmos 2278 Rocket 2.4 07:11:55 10° SSW 07:17:37 73° WNW 07:23:15 10° NNE
Cosmos 2346 Rocket 4.4 07:13:27 10° S 07:19:26 54° E 07:25:21 10° NNE
STARLINK-1034 3.7 07:16:22 10° NW 07:20:32 70° SW 07:20:33 70° SW
SL-08 R/B 4.3 07:14:24 10° N 07:20:32 74° E 07:24:23 24° SSE
NOSS 2-2 (E) 4.2 07:15:01 10° SSW 07:22:02 87° WNW 07:24:46 30° NNE
STARLINK-1068 4.0 07:21:25 10° NW 07:25:22 61° WSW 07:25:22 61° WSW
FengYun 1-2 T 4.3 07:25:50 22° S 07:29:34 74° WSW 07:35:07 10° NNW
STARLINK-1027 4.3 07:26:25 10° WNW 07:30:09 53° WSW 07:30:09 53° WSW
Cosmos 2056 Rocket 4.4 07:26:46 10° SSW 07:31:52 48° WNW 07:36:50 10° N
Atlas 2A Centaur Rocket 3.5 07:30:53 10° WNW 07:31:55 22° NW 07:31:55 22° NW
Cosmos 2233 Rocket 4.4 07:36:09 10° N 07:40:42 49° NNE 07:40:42 49° NNE
ATLAS 2AS CENTAUR R/B 4.4 07:36:44 10° S 07:38:35 17° S 07:38:35 17° S
BREEZE-M DEB (TANK) 3.3 07:36:21 10° NW 07:42:16 52° NW 07:42:16 52° NW
Okean-O 3.9 07:53:57 38° WNW 07:53:57 38° WNW 07:57:05 10° NNW
SL-4 R/B 4.4 07:57:18 10° W 07:59:48 20° WNW 07:59:48 20° WNW
Centaur D AC-25 3.9 07:46:47 10° W 08:09:09 57° NNW 08:10:05 54° N
Lacrosse 5 rocket 4.4 08:14:57 10° WSW 08:15:59 13° WSW 08:15:59 13° WSW
Longmarch 3A Rocket 4.2 08:12:24 10° WNW 08:18:38 31° NW 08:18:38 31° NW
CZ-3C R/B 4.1 08:29:19 10° NW 09:00:22 - ENE 08:30:17 15° NNW
